Location: Foxtrotter Observatory
(29.3381°N, 82.2844°W)
Time: 05:05:55
(UTC-04:00)

Tiangong 2 - Visible Passes

Search period start: 16 July 2018 00:00
Search period end: 26 July 2018 00:00
Orbit: 386 x 394 km, 42.8° (Epoch: 15 July)

Date Brightness Start Highest point End Pass type
(mag) Time Alt. Az. Time Alt. Az. Time Alt. Az.
19 Jul 4.1 22:37:49 10° N 22:38:45 11° NNE 22:39:00 11° NNE visible
20 Jul 4.6 23:15:41 10° NNW 23:16:01 12° NNW 23:16:01 12° NNW visible
21 Jul 3.5 22:18:24 10° NNW 22:20:30 16° NNE 22:20:44 16° NNE visible
22 Jul 3.8 21:21:22 10° N 21:22:33 12° NNE 21:23:44 10° NE visible
22 Jul 4.0 22:56:49 10° NW 22:57:47 18° NW 22:57:47 18° NW visible
23 Jul 2.6 21:59:21 10° NW 22:02:08 27° NNE 22:02:33 26° NE visible
24 Jul 3.4 21:02:01 10° NNW 21:04:15 17° NNE 21:06:29 10° ENE visible
24 Jul 3.3 22:38:11 10° WNW 22:39:41 25° WNW 22:39:41 25° WNW visible
25 Jul 1.4 21:40:29 10° NW 21:43:38 57° NNE 21:44:32 38° E visible
